パンスターズ彗星

P/2020 V3 ( PanSTARRS )

English version
Home page
Updated on March 7, 2023

---------------------------------------------------------------------

・ プロフィール

発見日 2020年11月10日
発見光度 20.6等
発見者 Pan-STARRS 1 telescope (Haleakala)

・ 写真集

・ 軌道要素

Epoch 2023 Feb. 25.0 TT = JDT 2460000.5
T 2021 Feb. 8.87760 TT                                  Rudenko
q   6.2306382            (2000.0)            P               Q
n   0.04060393     Peri.  249.34020     +0.06537358     -0.99030784
a   8.3834732      Node   198.25205     +0.99730321     +0.06894754
e   0.2567951      Incl.   23.03308     +0.03335577     -0.12056790
P  24.3
>From 129 observations 2019 Dec. 14-2023 Feb. 24, mean residual 0".4.

・ 光度変化

        m1 = 8.0 + 5 logΔ + 10.0 log r

---------------------------------------------------------------------

軌道要素はM.P.E.C. 2023-D72に掲載されたものです。
光度グラフはComet for Windowsで作成したものです。

---------------------------------------------------------------------

Copyright(C) Seiichi Yoshida (comet@aerith.net). All rights reserved.